START_TIME,STEP,MOV.,M15,t_acc.,M20,t_acc.
1979-08-05 12:00:42.500 ,0,0,0.,24.0,0.,24.0
1979-08-05 12:01:06.500 ,1,1,0.,24.0,0.,24.0
1979-08-05 12:01:30.500 ,1,0,0.,24.0,0.,24.0
1979-08-05 12:01:54.500 ,2,1,0.,24.0,0.,24.0
1979-08-05 12:02:18.500 ,2,0,0.,24.0,0.,24.0
1979-08-05 12:02:42.500 ,3,1,0.,24.0,0.,24.0
1979-08-05 12:03:06.500 ,3,0,0.,24.0,0.,24.0
1979-08-05 12:03:30.500 ,4,1,0.,24.0,0.,24.0
1979-08-05 12:03:54.500 ,4,0,0.,24.0,0.,24.0
1979-08-05 12:04:18.490 ,5,1,0.,24.0,0.,24.0
1979-08-05 12:04:42.500 ,5,0,0.,24.0,0.,24.0
1979-08-05 12:05:06.490 ,6,1,0.,24.0,0.,24.0
1979-08-05 12:05:30.500 ,6,0,0.,24.0,0.,24.0
1979-08-05 12:05:54.490 ,7,1,0.,24.0,0.,24.0
1979-08-05 12:06:18.490 ,7,0,0.,24.0,0.,24.0
1979-08-05 12:06:42.490 ,7,1,0.,24.0,0.,24.0
1979-08-05 12:07:06.490 ,7,0,0.,24.0,0.,24.0
1979-08-05 12:07:30.490 ,6,1,0.,24.0,0.,24.0
1979-08-05 12:07:54.490 ,6,0,0.,24.0,0.,24.0
1979-08-05 12:08:18.490 ,5,1,0.,24.0,0.,24.0
1979-08-05 12:08:42.490 ,5,0,0.,24.0,0.,24.0
1979-08-05 12:09:06.490 ,4,1,0.,24.0,0.,24.0
1979-08-05 12:09:30.490 ,4,0,0.,24.0,0.,24.0
1979-08-05 12:09:54.490 ,3,1,0.,24.0,0.,24.0
1979-08-05 12:10:18.490 ,3,0,0.,24.0,0.,24.0
1979-08-05 12:10:42.490 ,2,1,0.,24.0,0.,24.0
1979-08-05 12:11:06.490 ,2,0,0.,24.0,0.,24.0
1979-08-05 12:11:30.490 ,1,1,0.,24.0,0.,24.0
1979-08-05 12:11:54.490 ,1,0,0.,24.0,0.,24.0
1979-08-05 12:12:18.490 ,0,1,0.,24.0,0.,24.0
1979-08-05 12:12:42.490 ,0,0,0.,24.0,0.,24.0
1979-08-05 12:13:06.490 ,0,1,0.,24.0,0.,24.0
1979-08-05 12:13:30.490 ,0,0,0.,24.0,0.,24.0
1979-08-05 12:13:54.490 ,1,1,0.,24.0,0.,24.0
1979-08-05 12:14:18.490 ,1,0,0.,24.0,0.,24.0
1979-08-05 12:14:42.490 ,2,1,0.,24.0,0.,24.0
1979-08-05 12:15:06.490 ,2,0,0.,24.0,0.,24.0
1979-08-05 12:15:30.490 ,3,1,0.,24.0,0.,24.0
1979-08-05 12:15:54.490 ,3,0,0.,24.0,0.,24.0
1979-08-05 12:16:18.490 ,4,1,0.,24.0,0.,24.0
1979-08-05 12:16:42.490 ,4,0,0.,24.0,0.,24.0
1979-08-05 12:17:06.490 ,5,1,0.,24.0,0.,24.0
1979-08-05 12:17:30.490 ,5,0,0.,24.0,0.,24.0
1979-08-05 12:17:54.490 ,6,1,0.,24.0,0.,24.0
1979-08-05 12:18:18.490 ,6,0,0.,24.0,0.,24.0
1979-08-05 12:18:42.490 ,7,0,0.,24.0,0.,24.0
1979-08-05 12:19:06.490 ,7,0,0.,24.0,0.,24.0
1979-08-05 12:19:30.490 ,3,1,0.,24.0,0.,24.0
1979-08-05 12:19:54.490 ,0,1,0.,24.0,0.,24.0
1979-08-05 12:20:18.490 ,4,1,0.,24.0,0.,24.0
1979-08-05 12:20:42.490 ,7,1,0.,24.0,0.,24.0
1979-08-05 12:21:06.490 ,3,1,0.,24.0,0.,24.0
1979-08-05 12:21:30.490 ,0,1,0.,24.0,0.,24.0
1979-08-05 12:21:54.490 ,4,1,0.,24.0,0.,24.0
1979-08-05 12:22:18.490 ,7,1,0.,24.0,0.,24.0
1979-08-05 12:22:42.490 ,3,1,0.,24.0,0.,24.0
1979-08-05 12:23:06.490 ,0,1,0.,24.0,0.,24.0
1979-08-05 12:23:30.490 ,4,1,0.,24.0,0.,24.0
1979-08-05 12:23:54.490 ,7,1,0.,24.0,0.,24.0
1979-08-05 12:24:18.490 ,3,1,0.,24.0,0.,24.0
1979-08-05 12:24:42.490 ,0,1,0.,24.0,0.,24.0
1979-08-05 12:25:06.490 ,4,1,0.,24.0,0.,24.0
1979-08-05 12:25:30.490 ,7,1,0.,24.0,0.,24.0
1979-08-05 12:25:54.490 ,3,1,0.,24.0,0.,24.0
1979-08-05 12:26:18.490 ,0,1,0.,24.0,0.,24.0
1979-08-05 12:26:42.490 ,4,1,0.,24.0,0.,24.0
1979-08-05 12:27:06.490 ,7,1,0.,24.0,0.,24.0
1979-08-05 12:27:30.490 ,3,1,0.,24.0,0.,24.0
1979-08-05 12:27:54.490 ,0,1,0.,24.0,0.,24.0
1979-08-05 12:28:18.490 ,4,1,0.,24.0,0.,24.0
1979-08-05 12:28:42.490 ,7,1,0.,24.0,0.,24.0
1979-08-05 12:29:06.490 ,3,1,0.,24.0,0.,24.0
1979-08-05 12:29:30.490 ,0,1,0.,24.0,0.,24.0
1979-08-05 12:29:54.490 ,0,0,0.,24.0,0.,24.0
1979-08-05 12:30:18.490 ,0,0,0.,24.0,0.,24.0
1979-08-05 12:30:42.490 ,5,1,0.,24.0,0.,24.0
1979-08-05 12:31:06.490 ,5,0,0.,24.0,0.,24.0
1979-08-05 12:31:30.490 ,4,1,0.,24.0,0.,24.0
1979-08-05 12:31:54.490 ,4,0,0.,24.0,0.,24.0
1979-08-05 12:32:18.490 ,3,1,0.,24.0,0.,24.0
1979-08-05 12:32:42.490 ,3,0,0.,24.0,0.,24.0
1979-08-05 12:33:06.490 ,2,1,0.,24.0,0.,24.0
1979-08-05 12:33:30.490 ,2,0,0.,24.0,0.,24.0
1979-08-05 12:33:54.490 ,1,1,0.,24.0,0.,24.0
1979-08-05 12:34:18.490 ,1,0,0.,24.0,0.,24.0
1979-08-05 12:34:42.490 ,0,1,0.,24.0,0.,24.0
1979-08-05 12:35:06.490 ,0,0,0.,24.0,0.,24.0
1979-08-05 12:35:30.490 ,0,1,0.,24.0,0.,24.0
1979-08-05 12:35:54.490 ,0,0,0.,24.0,0.,24.0
1979-08-05 12:36:18.490 ,1,1,0.,24.0,0.,24.0
1979-08-05 12:36:42.490 ,1,0,0.,24.0,0.,24.0
1979-08-05 12:37:06.490 ,2,1,0.,24.0,0.,24.0
1979-08-05 12:37:30.490 ,2,0,0.,24.0,0.,24.0
1979-08-05 12:37:54.490 ,3,1,0.,24.0,0.,24.0
1979-08-05 12:38:18.490 ,3,0,0.,24.0,0.,24.0
1979-08-05 12:38:42.490 ,4,1,0.,24.0,0.,24.0
1979-08-05 12:39:06.490 ,4,0,0.,24.0,0.,24.0
1979-08-05 12:39:30.490 ,5,1,0.,24.0,0.,24.0
1979-08-05 12:39:54.490 ,5,0,0.,24.0,0.,24.0
1979-08-05 12:40:18.490 ,6,1,0.,24.0,0.,24.0
1979-08-05 12:40:42.490 ,6,0,0.,24.0,0.,24.0
1979-08-05 12:41:06.490 ,7,1,0.,24.0,0.,24.0
1979-08-05 12:41:30.490 ,7,0,0.,24.0,0.,24.0
1979-08-05 12:41:54.490 ,7,1,0.,24.0,0.,24.0
1979-08-05 12:42:18.490 ,7,0,0.,24.0,0.,24.0
1979-08-05 12:42:42.490 ,6,1,0.,24.0,0.,24.0
1979-08-05 12:43:06.490 ,6,0,0.,24.0,0.,24.0
1979-08-05 12:43:30.490 ,5,1,0.,24.0,0.,24.0
1979-08-05 12:43:54.490 ,5,0,0.,24.0,0.,24.0
1979-08-05 12:44:18.490 ,4,1,0.,24.0,0.,24.0
1979-08-05 12:44:42.490 ,4,0,0.,24.0,0.,24.0
1979-08-05 12:45:06.490 ,3,1,0.,24.0,0.,24.0
1979-08-05 12:45:30.490 ,3,0,0.,24.0,0.,24.0
1979-08-05 12:45:54.490 ,2,1,0.,24.0,0.,24.0
1979-08-05 12:46:18.490 ,2,0,0.,24.0,0.,24.0
1979-08-05 12:46:42.490 ,1,1,0.,24.0,0.,24.0
1979-08-05 12:47:06.490 ,1,0,0.,24.0,0.,24.0
1979-08-05 12:47:30.490 ,0,1,0.,24.0,0.,24.0
1979-08-05 12:47:54.490 ,0,0,0.,24.0,0.,24.0
1979-08-05 12:48:18.490 ,0,1,0.,24.0,0.,24.0
1979-08-05 12:48:42.490 ,0,0,0.,24.0,0.,24.0
1979-08-05 12:49:06.490 ,1,1,0.,24.0,0.,24.0
1979-08-05 12:49:30.490 ,1,0,0.,24.0,0.,24.0
1979-08-05 12:49:54.490 ,2,1,0.,24.0,0.,24.0
1979-08-05 12:50:18.490 ,2,0,0.,24.0,0.,24.0
1979-08-05 12:50:42.490 ,3,1,0.,24.0,0.,24.0
1979-08-05 12:51:06.490 ,3,0,0.,24.0,0.,24.0
1979-08-05 12:51:30.490 ,4,1,0.,24.0,0.,24.0
1979-08-05 12:51:54.490 ,4,0,0.,24.0,0.,24.0
1979-08-05 12:52:18.490 ,5,1,0.,24.0,0.,24.0
1979-08-05 12:52:42.490 ,5,0,0.,24.0,0.,24.0
1979-08-05 12:53:06.490 ,6,1,0.,24.0,0.,24.0
1979-08-05 12:53:30.490 ,6,0,0.,24.0,0.,24.0
1979-08-05 12:53:54.490 ,7,1,0.,24.0,0.,24.0
1979-08-05 12:54:18.490 ,7,0,0.,24.0,0.,24.0
1979-08-05 12:54:42.490 ,7,1,0.,24.0,0.,24.0
1979-08-05 12:55:06.490 ,7,0,0.,24.0,0.,24.0
1979-08-05 12:55:30.490 ,6,1,0.,24.0,0.,24.0
1979-08-05 12:55:54.490 ,6,0,0.,24.0,0.,24.0
1979-08-05 12:56:18.490 ,5,1,0.,24.0,0.,24.0
1979-08-05 12:56:42.490 ,5,0,0.,24.0,0.,24.0
1979-08-05 12:57:06.490 ,4,1,0.,24.0,0.,24.0
1979-08-05 12:57:30.490 ,4,0,0.,24.0,0.,24.0
1979-08-05 12:57:54.490 ,3,1,0.,24.0,0.,24.0
1979-08-05 12:58:18.490 ,3,0,0.,24.0,0.,24.0
1979-08-05 12:58:42.490 ,2,1,0.,24.0,0.,24.0
1979-08-05 12:59:06.490 ,2,0,0.,24.0,0.,24.0
1979-08-05 12:59:30.490 ,1,1,0.,24.0,0.,24.0
1979-08-05 12:59:54.490 ,1,0,0.,24.0,0.,24.0
1979-08-05 13:00:18.490 ,0,1,0.,24.0,0.,24.0
1979-08-05 13:00:42.490 ,0,0,0.,24.0,0.,24.0
1979-08-05 13:01:06.490 ,0,1,0.,24.0,0.,24.0
1979-08-05 13:01:30.490 ,0,0,0.,24.0,0.,24.0
1979-08-05 13:01:54.490 ,1,1,0.,24.0,0.,24.0
1979-08-05 13:02:18.490 ,1,0,0.,24.0,0.,24.0
1979-08-05 13:02:42.490 ,2,1,0.,24.0,0.,24.0
1979-08-05 13:03:06.490 ,2,0,0.,24.0,0.,24.0
1979-08-05 13:03:30.490 ,3,1,0.,24.0,0.,24.0
1979-08-05 13:03:54.490 ,3,0,0.,24.0,0.,24.0
1979-08-05 13:04:18.490 ,4,1,0.,24.0,0.,24.0
1979-08-05 13:04:42.490 ,4,0,0.,24.0,0.,24.0
1979-08-05 13:05:06.490 ,5,1,0.,24.0,0.,24.0
1979-08-05 13:05:30.490 ,5,0,0.,24.0,0.,24.0
1979-08-05 13:05:54.490 ,6,1,0.,24.0,0.,24.0
1979-08-05 13:06:18.490 ,6,0,0.,24.0,0.,24.0
1979-08-05 13:06:42.490 ,7,0,0.,24.0,0.,24.0
1979-08-05 13:07:06.490 ,7,0,0.,24.0,0.,24.0
1979-08-05 13:07:30.490 ,3,1,0.,24.0,0.,24.0
1979-08-05 13:07:54.490 ,0,1,0.,24.0,0.,24.0
1979-08-05 13:08:18.490 ,4,1,0.,24.0,0.,24.0
1979-08-05 13:08:42.490 ,0,0,,0,,0
1979-08-05 13:09:11.890 ,0,0,0.,24.0,0.,24.0
1979-08-05 13:09:30.490 ,0,1,0.,24.0,0.,24.0
1979-08-05 13:09:54.490 ,4,1,0.,24.0,0.,24.0
1979-08-05 13:10:18.490 ,7,1,0.,24.0,0.,24.0
1979-08-05 13:10:42.490 ,3,1,0.,24.0,0.,24.0
1979-08-05 13:11:06.490 ,0,1,0.,24.0,0.,24.0
1979-08-05 13:11:30.490 ,4,1,0.,24.0,0.,24.0
1979-08-05 13:11:54.490 ,7,1,0.,24.0,0.,24.0
1979-08-05 13:12:18.490 ,3,1,0.,24.0,0.,24.0
1979-08-05 13:12:42.490 ,0,1,0.,24.0,0.,24.0
1979-08-05 13:13:06.490 ,4,1,0.,24.0,0.,24.0
1979-08-05 13:13:54.490 ,3,1,0.,24.0,0.,24.0
1979-08-05 13:14:18.490 ,0,1,0.,24.0,0.,24.0
1979-08-05 13:14:42.490 ,4,1,0.,24.0,0.,24.0
1979-08-05 13:15:06.490 ,7,1,0.,24.0,0.,24.0
1979-08-05 13:15:30.490 ,3,1,0.,24.0,0.,24.0
1979-08-05 13:15:54.490 ,0,1,0.,24.0,0.,24.0
1979-08-05 13:16:18.490 ,4,1,0.,24.0,0.,24.0
1979-08-05 13:16:42.490 ,7,1,0.,24.0,0.,24.0
1979-08-05 13:17:06.490 ,3,1,0.,24.0,0.,24.0
1979-08-05 13:17:30.490 ,0,1,0.,24.0,0.,24.0
1979-08-05 13:17:54.490 ,0,0,0.,24.0,0.,24.0
1979-08-05 13:18:18.490 ,0,0,0.,24.0,0.,24.0
1979-08-05 13:18:42.490 ,5,1,0.,24.0,0.,24.0
1979-08-05 13:19:06.490 ,5,0,0.,24.0,0.,24.0
1979-08-05 13:19:30.490 ,4,1,0.,24.0,0.,24.0
1979-08-05 13:19:54.490 ,4,0,0.,24.0,0.,24.0
1979-08-05 13:20:18.490 ,3,1,0.,24.0,0.,24.0
1979-08-05 13:20:42.490 ,3,0,0.,24.0,0.,24.0
1979-08-05 13:21:06.490 ,2,1,0.,24.0,0.,24.0
1979-08-05 13:21:30.490 ,2,0,0.,24.0,0.,24.0
1979-08-05 13:21:54.490 ,1,1,0.,24.0,0.,24.0
1979-08-05 13:22:18.490 ,1,0,0.,24.0,0.,24.0
1979-08-05 13:22:42.490 ,0,1,0.,24.0,0.,24.0
1979-08-05 13:23:06.490 ,0,0,0.,24.0,0.,24.0
1979-08-05 13:23:30.490 ,0,1,0.,24.0,0.,24.0
1979-08-05 13:23:54.490 ,0,0,0.,24.0,0.,24.0
1979-08-05 13:24:18.490 ,1,1,0.,24.0,0.,24.0
1979-08-05 13:24:42.490 ,1,0,0.,24.0,0.,24.0
1979-08-05 13:25:06.490 ,2,1,0.,24.0,0.,24.0
1979-08-05 13:25:30.490 ,2,0,0.,24.0,0.,24.0
1979-08-05 13:25:54.490 ,3,1,0.,24.0,0.,24.0
1979-08-05 13:26:18.490 ,3,0,0.,24.0,0.,24.0
1979-08-05 13:26:42.490 ,4,1,0.,24.0,0.,24.0
1979-08-05 13:27:06.490 ,4,0,0.,24.0,0.,24.0
1979-08-05 13:27:30.490 ,5,1,0.,24.0,0.,24.0
1979-08-05 13:27:54.490 ,5,0,0.,24.0,0.,24.0
1979-08-05 13:28:18.490 ,6,1,0.,24.0,0.,24.0
1979-08-05 13:28:42.490 ,6,0,0.,24.0,0.,24.0
1979-08-05 13:29:06.490 ,7,1,0.,24.0,0.,24.0
1979-08-05 13:29:30.490 ,7,0,0.,24.0,0.,24.0
1979-08-05 13:29:54.490 ,7,1,0.,24.0,0.,24.0
1979-08-05 13:30:18.490 ,7,0,0.,24.0,0.,24.0
1979-08-05 13:30:42.490 ,6,1,0.,24.0,0.,24.0
1979-08-05 13:31:06.490 ,6,0,0.,24.0,0.,24.0
1979-08-05 13:31:30.490 ,5,1,0.,24.0,0.,24.0
1979-08-05 13:31:54.490 ,5,0,0.,24.0,0.,24.0
1979-08-05 13:32:18.490 ,4,1,0.,24.0,0.,24.0
1979-08-05 13:32:42.490 ,4,0,0.,24.0,0.,24.0
1979-08-05 13:33:06.490 ,3,1,0.,24.0,0.,24.0
1979-08-05 13:33:30.490 ,3,0,0.,24.0,0.,24.0
1979-08-05 13:33:54.490 ,2,1,0.,24.0,0.,24.0
1979-08-05 13:34:18.490 ,2,0,0.,24.0,0.,24.0
1979-08-05 13:34:42.490 ,1,1,0.,24.0,0.,24.0
1979-08-05 13:35:06.490 ,1,0,0.,24.0,0.,24.0
1979-08-05 13:35:30.490 ,0,1,0.,24.0,0.,24.0
1979-08-05 13:35:54.490 ,0,0,0.,24.0,0.,24.0
1979-08-05 13:36:18.490 ,0,1,0.,24.0,0.,24.0
1979-08-05 13:36:42.490 ,0,0,0.,24.0,0.,24.0
1979-08-05 13:37:06.490 ,1,1,0.,24.0,0.,24.0
1979-08-05 13:37:30.490 ,1,0,0.,24.0,0.,24.0
1979-08-05 13:37:54.490 ,2,1,0.,24.0,0.,24.0
1979-08-05 13:38:18.490 ,2,0,0.,24.0,0.,24.0
1979-08-05 13:38:42.490 ,3,1,0.,24.0,0.,24.0
1979-08-05 13:39:06.490 ,3,0,0.,24.0,0.,24.0
1979-08-05 13:39:30.490 ,4,1,0.,24.0,0.,24.0
1979-08-05 13:39:54.490 ,4,0,0.,24.0,0.,24.0
1979-08-05 13:40:18.490 ,5,1,0.,24.0,0.,24.0
1979-08-05 13:40:42.490 ,5,0,0.,24.0,0.,24.0
1979-08-05 13:41:06.490 ,6,1,0.,24.0,0.,24.0
1979-08-05 13:41:30.490 ,6,0,0.,24.0,0.,24.0
1979-08-05 13:41:54.490 ,7,1,0.,24.0,0.,24.0
1979-08-05 13:42:18.490 ,7,0,0.,24.0,0.,24.0
1979-08-05 13:42:42.490 ,7,1,0.,24.0,0.,24.0
1979-08-05 13:43:06.490 ,7,0,0.,24.0,0.,24.0
1979-08-05 13:43:30.490 ,6,1,0.,24.0,0.,24.0
1979-08-05 13:43:54.490 ,6,0,0.,24.0,0.,24.0
1979-08-05 13:44:18.490 ,5,1,0.,24.0,0.,24.0
1979-08-05 13:44:42.490 ,5,0,0.,24.0,0.,24.0
1979-08-05 13:45:06.490 ,4,1,0.,24.0,0.,24.0
1979-08-05 13:45:30.490 ,4,0,0.,24.0,0.,24.0
1979-08-05 13:45:54.490 ,3,1,0.,24.0,0.,24.0
1979-08-05 13:46:18.490 ,3,0,0.,24.0,0.,24.0
1979-08-05 13:46:42.490 ,2,1,0.,24.0,0.,24.0
1979-08-05 13:47:06.490 ,2,0,0.,24.0,0.,24.0
1979-08-05 13:47:30.490 ,1,1,0.,24.0,0.,24.0
1979-08-05 13:47:54.490 ,1,0,0.,24.0,0.,24.0
1979-08-05 13:48:18.490 ,0,1,0.,24.0,0.,24.0
1979-08-05 13:48:42.490 ,0,0,0.,24.0,0.,24.0
1979-08-05 13:49:06.490 ,0,1,0.,24.0,0.,24.0
1979-08-05 13:49:30.490 ,0,0,0.,24.0,0.,24.0
1979-08-05 13:49:54.490 ,1,1,0.,24.0,0.,24.0
1979-08-05 13:50:18.490 ,1,0,0.,24.0,0.,24.0
1979-08-05 13:50:42.490 ,2,1,0.,24.0,0.,24.0
1979-08-05 13:51:06.490 ,2,0,0.,24.0,0.,24.0
1979-08-05 13:51:30.490 ,3,1,0.,24.0,0.,24.0
1979-08-05 13:51:54.490 ,3,0,0.,24.0,0.,24.0
1979-08-05 13:52:18.490 ,4,1,0.,24.0,0.,24.0
1979-08-05 13:52:42.490 ,4,0,0.,24.0,0.,24.0
1979-08-05 13:53:06.490 ,5,1,0.,24.0,0.,24.0
1979-08-05 13:53:30.490 ,5,0,0.,24.0,0.,24.0
1979-08-05 13:53:54.490 ,6,1,0.,24.0,0.,24.0
1979-08-05 13:54:18.490 ,6,0,0.,24.0,0.,24.0
1979-08-05 13:54:42.490 ,7,0,0.,24.0,0.,24.0
1979-08-05 13:55:06.490 ,7,0,0.,24.0,0.,24.0
1979-08-05 13:55:30.490 ,3,1,0.,24.0,0.,24.0
1979-08-05 13:55:54.490 ,0,1,0.,24.0,0.,24.0
1979-08-05 13:56:18.490 ,4,1,0.,24.0,0.,24.0
1979-08-05 13:56:42.490 ,7,1,0.,24.0,0.,24.0
1979-08-05 13:57:06.490 ,3,1,0.,24.0,0.,24.0
1979-08-05 13:57:30.490 ,0,1,0.,24.0,0.,24.0
1979-08-05 13:57:54.490 ,4,1,0.,24.0,0.,24.0
1979-08-05 13:58:18.490 ,7,1,0.,24.0,0.,24.0
1979-08-05 13:58:42.490 ,3,1,0.,24.0,0.,24.0
1979-08-05 13:59:06.490 ,0,1,0.,24.0,0.,24.0
1979-08-05 13:59:30.490 ,4,1,0.,24.0,0.,24.0
1979-08-05 13:59:54.490 ,7,1,0.,24.0,0.,24.0
1979-08-05 14:00:18.490 ,3,1,0.,24.0,0.,24.0
1979-08-05 14:00:42.490 ,0,1,0.,24.0,0.,24.0
1979-08-05 14:01:06.490 ,4,1,0.,24.0,0.,24.0
1979-08-05 14:01:30.490 ,7,1,0.,24.0,0.,24.0
1979-08-05 14:01:54.490 ,3,1,0.,24.0,0.,24.0
1979-08-05 14:02:18.490 ,0,1,0.,24.0,0.,24.0
1979-08-05 14:02:42.490 ,4,1,0.,24.0,0.,24.0
1979-08-05 14:03:06.490 ,7,1,0.,24.0,0.,24.0
1979-08-05 14:03:30.490 ,3,1,0.,24.0,0.,24.0
1979-08-05 14:03:54.490 ,0,1,0.,24.0,0.,24.0
1979-08-05 14:04:18.490 ,4,1,0.,24.0,0.,24.0
1979-08-05 14:04:42.490 ,7,1,0.,24.0,0.,24.0
1979-08-05 14:05:06.490 ,3,1,0.,24.0,0.,24.0
1979-08-05 14:05:30.490 ,0,1,0.,24.0,0.,24.0
1979-08-05 14:05:54.490 ,0,0,0.,24.0,0.,24.0
1979-08-05 14:06:18.490 ,0,0,0.,24.0,0.,24.0
1979-08-05 14:06:42.490 ,5,1,0.,24.0,0.,24.0
1979-08-05 14:07:06.490 ,5,0,0.,24.0,0.,24.0
1979-08-05 14:07:30.490 ,4,1,0.,24.0,0.,24.0
1979-08-05 14:07:54.490 ,4,0,0.,24.0,0.,24.0
1979-08-05 14:08:18.490 ,3,1,0.,24.0,0.,24.0
1979-08-05 14:08:42.490 ,3,0,0.,24.0,0.,24.0
1979-08-05 14:09:06.490 ,2,1,0.,24.0,0.,24.0
1979-08-05 14:09:30.490 ,2,0,0.,24.0,0.,24.0
1979-08-05 14:09:54.490 ,1,1,0.,24.0,0.,24.0
1979-08-05 14:10:18.490 ,1,0,0.,24.0,0.,24.0
1979-08-05 14:10:42.490 ,0,1,0.,24.0,0.,24.0
1979-08-05 14:11:06.490 ,0,0,0.,24.0,0.,24.0
1979-08-05 14:11:30.490 ,0,1,0.,24.0,0.,24.0
1979-08-05 14:11:54.490 ,0,0,0.,24.0,0.,24.0
1979-08-05 14:12:18.490 ,1,1,0.,24.0,0.,24.0
1979-08-05 14:12:42.490 ,1,0,0.,24.0,0.,24.0
1979-08-05 14:13:06.490 ,2,1,0.,24.0,0.,24.0
1979-08-05 14:13:30.490 ,2,0,0.,24.0,0.,24.0
1979-08-05 14:13:54.490 ,3,1,0.,24.0,0.,24.0
1979-08-05 14:14:18.490 ,3,0,0.,24.0,0.,24.0
1979-08-05 14:14:42.490 ,4,1,0.,24.0,0.,24.0
1979-08-05 14:15:06.490 ,4,0,0.,24.0,0.,24.0
1979-08-05 14:15:30.490 ,5,1,0.,24.0,0.,24.0
1979-08-05 14:15:54.490 ,5,0,0.,24.0,1.,24.0
1979-08-05 14:16:18.490 ,6,1,0.,24.0,0.,24.0
1979-08-05 14:16:42.490 ,6,0,0.,24.0,0.,24.0
1979-08-05 14:17:06.490 ,7,1,0.,24.0,0.,24.0
1979-08-05 14:17:30.490 ,7,0,0.,24.0,0.,24.0
1979-08-05 14:17:54.490 ,7,1,0.,24.0,0.,24.0
1979-08-05 14:18:18.490 ,7,0,0.,24.0,0.,24.0
1979-08-05 14:18:42.490 ,6,1,0.,24.0,0.,24.0
1979-08-05 14:19:06.490 ,6,0,0.,24.0,0.,24.0
1979-08-05 14:19:30.490 ,5,1,0.,24.0,0.,24.0
1979-08-05 14:19:54.490 ,5,0,0.,24.0,0.,24.0
1979-08-05 14:20:18.490 ,4,1,0.,24.0,0.,24.0
1979-08-05 14:20:42.490 ,4,0,0.,24.0,0.,24.0
1979-08-05 14:21:06.490 ,3,1,0.,24.0,0.,24.0
1979-08-05 14:21:30.490 ,3,0,0.,24.0,0.,24.0
1979-08-05 14:21:54.490 ,2,1,0.,24.0,0.,24.0
1979-08-05 14:22:18.490 ,2,0,0.,24.0,0.,24.0
1979-08-05 14:22:42.490 ,1,1,0.,24.0,0.,24.0
1979-08-05 14:23:06.490 ,1,0,0.,24.0,0.,24.0
1979-08-05 14:23:30.490 ,0,1,0.,24.0,0.,24.0
1979-08-05 14:23:54.490 ,0,0,0.,24.0,0.,24.0
1979-08-05 14:24:18.490 ,0,1,0.,24.0,0.,24.0
1979-08-05 14:24:42.490 ,0,0,0.,24.0,0.,24.0
1979-08-05 14:25:06.490 ,1,1,0.,24.0,0.,24.0
1979-08-05 14:25:30.490 ,1,0,0.,24.0,0.,24.0
1979-08-05 14:25:54.490 ,2,1,0.,24.0,0.,24.0
1979-08-05 14:26:18.490 ,2,0,0.,24.0,0.,24.0
1979-08-05 14:26:42.490 ,3,1,0.,24.0,0.,24.0
1979-08-05 14:27:06.490 ,3,0,0.,24.0,0.,24.0
1979-08-05 14:27:30.490 ,4,1,0.,24.0,0.,24.0
1979-08-05 14:27:54.490 ,4,0,0.,24.0,0.,24.0
1979-08-05 14:28:18.490 ,5,1,0.,24.0,0.,24.0
1979-08-05 14:28:42.490 ,5,0,0.,24.0,0.,24.0
1979-08-05 14:29:06.490 ,6,1,0.,24.0,0.,24.0
1979-08-05 14:29:30.490 ,6,0,0.,24.0,0.,24.0
1979-08-05 14:29:54.490 ,7,1,0.,24.0,0.,24.0
1979-08-05 14:30:18.490 ,7,0,0.,24.0,0.,24.0
1979-08-05 14:30:42.490 ,7,1,0.,24.0,0.,24.0
1979-08-05 14:31:06.490 ,7,0,0.,24.0,0.,24.0
1979-08-05 14:31:30.490 ,6,1,0.,24.0,0.,24.0
1979-08-05 14:31:54.490 ,0,0,0.,24.0,0.,24.0
1979-08-05 14:32:18.490 ,5,1,0.,24.0,0.,24.0
1979-08-05 14:32:42.490 ,5,0,0.,24.0,0.,24.0
1979-08-05 14:33:06.490 ,4,1,0.,24.0,0.,24.0
1979-08-05 14:33:30.490 ,4,0,0.,24.0,0.,24.0
1979-08-05 14:33:54.490 ,3,1,0.,24.0,0.,24.0
1979-08-05 14:34:18.490 ,3,0,0.,24.0,0.,24.0
1979-08-05 14:34:42.490 ,2,1,0.,24.0,0.,24.0
1979-08-05 14:35:06.490 ,2,0,0.,24.0,0.,24.0
1979-08-05 14:35:31.690 ,1,1,0.,24.0,0.,24.0
1979-08-05 14:35:54.490 ,1,0,0.,24.0,0.,24.0
1979-08-05 14:36:18.490 ,0,1,0.,24.0,0.,24.0
1979-08-05 14:36:42.490 ,0,0,0.,24.0,0.,24.0
1979-08-05 14:37:06.490 ,0,1,0.,24.0,0.,24.0
1979-08-05 14:37:30.490 ,0,0,0.,24.0,0.,24.0
1979-08-05 14:37:54.490 ,1,1,0.,24.0,0.,24.0
1979-08-05 14:38:18.490 ,1,0,0.,24.0,0.,24.0
1979-08-05 14:38:42.490 ,2,1,0.,24.0,0.,24.0
1979-08-05 14:39:06.490 ,2,0,0.,24.0,0.,24.0
1979-08-05 14:39:30.490 ,3,1,0.,24.0,0.,24.0
1979-08-05 14:39:54.490 ,3,0,0.,24.0,0.,24.0
1979-08-05 14:40:18.490 ,4,1,0.,24.0,0.,24.0
1979-08-05 14:40:42.490 ,4,0,0.,24.0,0.,24.0
1979-08-05 14:41:06.490 ,5,1,0.,24.0,0.,24.0
1979-08-05 14:41:30.490 ,5,0,0.,24.0,0.,24.0
1979-08-05 14:41:54.490 ,6,1,0.,24.0,0.,24.0
1979-08-05 14:42:18.490 ,6,0,0.,24.0,0.,24.0
1979-08-05 14:42:42.490 ,7,0,0.,24.0,0.,24.0
1979-08-05 14:43:06.490 ,7,0,0.,24.0,0.,24.0
1979-08-05 14:43:30.490 ,3,1,0.,24.0,0.,24.0
1979-08-05 14:43:54.490 ,0,1,0.,24.0,0.,24.0
1979-08-05 14:44:18.490 ,4,1,0.,24.0,0.,24.0
1979-08-05 14:44:42.490 ,7,1,0.,24.0,0.,24.0
1979-08-05 14:45:06.490 ,3,1,0.,24.0,0.,24.0
1979-08-05 14:45:30.490 ,0,1,0.,24.0,0.,24.0
1979-08-05 14:45:54.490 ,4,1,0.,24.0,0.,24.0
1979-08-05 14:46:18.490 ,7,1,0.,24.0,0.,24.0
1979-08-05 14:46:42.490 ,3,1,0.,24.0,0.,24.0
1979-08-05 14:47:06.490 ,0,1,0.,24.0,0.,24.0
1979-08-05 14:47:30.490 ,4,1,0.,24.0,0.,24.0
1979-08-05 14:47:54.490 ,7,1,0.,24.0,0.,24.0
1979-08-05 14:48:18.490 ,3,1,0.,24.0,0.,24.0
1979-08-05 14:48:42.490 ,0,1,0.,24.0,0.,24.0
1979-08-05 14:49:06.490 ,4,1,0.,24.0,0.,24.0
1979-08-05 14:49:30.490 ,7,1,0.,24.0,0.,24.0
1979-08-05 14:49:54.490 ,0,0,,0,,0
1979-08-05 14:50:18.490 ,0,0,0.,24.0,0.,24.0
1979-08-05 14:50:42.490 ,4,1,0.,24.0,0.,24.0
1979-08-05 14:51:06.490 ,7,1,0.,24.0,0.,24.0
1979-08-05 14:51:30.490 ,3,1,0.,24.0,0.,24.0
1979-08-05 14:51:54.490 ,0,1,0.,24.0,0.,24.0
1979-08-05 14:52:18.490 ,4,1,0.,24.0,0.,24.0
1979-08-05 14:52:42.490 ,7,1,0.,24.0,0.,24.0
1979-08-05 14:53:06.490 ,3,1,0.,24.0,0.,24.0
1979-08-05 14:53:30.490 ,0,1,0.,24.0,0.,24.0
1979-08-05 14:53:54.490 ,0,0,0.,24.0,0.,24.0
1979-08-05 14:54:18.490 ,0,0,0.,24.0,0.,24.0
1979-08-05 14:54:42.490 ,5,1,0.,24.0,0.,24.0
1979-08-05 14:55:06.490 ,5,0,0.,24.0,0.,24.0
1979-08-05 14:55:30.490 ,4,1,0.,24.0,0.,24.0
1979-08-05 14:55:54.490 ,4,0,0.,24.0,0.,24.0
1979-08-05 14:56:18.490 ,3,1,0.,24.0,0.,24.0
1979-08-05 14:56:42.490 ,3,0,0.,24.0,0.,24.0
1979-08-05 14:57:06.490 ,2,1,0.,24.0,0.,24.0
1979-08-05 14:57:30.490 ,2,0,0.,24.0,0.,24.0
1979-08-05 14:57:54.490 ,1,1,0.,24.0,0.,24.0
1979-08-05 14:58:18.490 ,1,0,0.,24.0,0.,24.0
1979-08-05 14:58:42.490 ,0,1,0.,24.0,0.,24.0
1979-08-05 14:59:06.490 ,0,0,0.,24.0,0.,24.0
1979-08-05 14:59:30.490 ,0,1,0.,24.0,0.,24.0
1979-08-05 14:59:54.490 ,0,0,0.,24.0,0.,24.0
1979-08-05 15:00:18.490 ,1,1,0.,24.0,0.,24.0
